Location: Br�ttisellen
(47.4227°N, 8.6287°E)
Time: 09:34:09
(UTC+00:00)

USA 234 - Pass Details

Date: 09 April 2020
Orbit: 1102 x 1106 km, 123.0° (Epoch: 14 May)

Event Time Altitude Azimuth Distance (km) Brightness Sun altitude
Rises 23:17:08 0° 61° (ENE) 3,924 6.5 -34.5°
Reaches altitude 10° 23:19:44 10° 55° (NE) 2,965 5.8 -34.5°
Maximum altitude 23:25:49 43° 347° (NNW) 1,504 4.2 -34.5°
Drops below altitude 10° 23:31:54 10° 279° (W) 2,963 5.6 -34.5°
Sets 23:34:30 0° 273° (W) 3,921 6.2 -34.5°
